Weather History for EGUL - November, 2012

Change the Weather History Date:

Thursday, November 1, 2012

  Actual Average (EGSC) Record (EGSC)
Temperature  
Mean Temperature 44 °F -  
Max Temperature 51 °F 53 °F 62 °F (2014)
Min Temperature 38 °F 44 °F 30 °F (1997)
Degree Days  
Heating Degree Days 20    
Moisture  
Dew Point 42 °F    
Average Humidity 90    
Maximum Humidity 100    
Minimum Humidity 74    
Precipitation  
Precipitation 0.30 in - - ()
Sea Level Pressure  
Sea Level Pressure 28.84 in    
Wind  
Wind Speed 11 mph ()    
Max Wind Speed 25 mph    
Max Gust Speed 32 mph    
Visibility 6.2 miles    
Events Rain    
Averages and records for this station are not official NWS values.
T = Trace of Precipitation, MM = Missing Value Source: Averaged Metar Reports

Daily Weather History Graph

Daily Weather History Graph

Search for Another Location

Airport or City:

Trip Planner

Search our weather history database for the weather conditions in past years. The results will help you decide how hot, cold, wet, or windy it might be!

Date:

Astronomy

Nov. 01, 2012 Rise Set
Actual Time 6:54 AM GMT 4:27 PM GMT
Civil Twilight 6:18 AM GMT 5:03 PM GMT
Nautical Twilight 5:37 AM GMT 5:43 PM GMT
Astronomical Twilight 4:58 AM GMT 6:23 PM GMT
Moon 5:55 PM GMT (11/1) 9:31 AM GMT (11/1)
Length of Visible Light 10h 45m
Length of Day
9h 33m
Waning Gibbous, 94% of the Moon is Illuminated
Nov 1
Waning Gibbous
Nov 7
Last Quarter
Nov 13
New
Nov 20
First Quarter
Nov 28
Full

Hourly Weather History & Observations

Time (GMT) Temp. Windchill Dew Point Humidity Pressure Visibility Wind Dir Wind Speed Gust Speed Precip Events Conditions
12:58 AM 51.6 °F - 45.1 °F 79% 28.85 in 6.2 mi SSE 18.4 mph 26.5 mph N/A   Scattered Clouds
1:58 AM 51.6 °F - 45.3 °F 79% 28.82 in 6.2 mi SSE 17.3 mph 28.8 mph N/A   Partly Cloudy
2:16 AM 51.8 °F - 46.4 °F 82% 28.80 in 6.2 mi SSE 15.0 mph 21.9 mph N/A Rain Light Rain
2:30 AM 51.8 °F - 46.4 °F 82% 28.80 in 6.2 mi SSW 13.8 mph 24.2 mph N/A Rain Light Rain
2:36 AM 50.0 °F - 46.4 °F 87% 28.79 in 6.2 mi SW 23.0 mph 32.2 mph N/A Rain Light Rain
2:37 AM 50.0 °F - 44.6 °F 82% 28.79 in 6.2 mi SSW 25.3 mph 32.2 mph N/A Rain Light Rain
2:39 AM 50.0 °F - 44.6 °F 82% 28.80 in 5.0 mi SSW 18.4 mph 32.2 mph N/A Rain Heavy Rain
2:41 AM 48.2 °F - 44.6 °F 87% 28.80 in 5.0 mi SSW 16.1 mph 32.2 mph N/A Rain Heavy Rain
2:50 AM 48.2 °F - 44.6 °F 87% 28.79 in 6.2 mi SSW 11.5 mph - N/A   Mostly Cloudy
2:54 AM 48.2 °F - 44.6 °F 87% 28.79 in 6.2 mi South 9.2 mph - N/A Rain Light Rain
2:58 AM 47.7 °F - 44.4 °F 89% 28.80 in 6.2 mi South 9.2 mph - 0.04 in Rain Light Rain
3:28 AM 46.4 °F 42.9 °F 44.6 °F 93% 28.78 in 6.2 mi SSW 6.9 mph - N/A Rain Rain
3:44 AM 46.4 °F 40.7 °F 44.6 °F 93% 28.79 in 6.2 mi SW 12.7 mph - N/A Rain Rain
3:52 AM 46.4 °F 40.7 °F 44.6 °F 93% 28.79 in 6.2 mi West 12.7 mph - N/A Rain Rain
3:58 AM 44.6 °F 39.2 °F 42.8 °F 93% 28.80 in 6.2 mi WNW 10.4 mph - 0.12 in Rain Rain
4:00 AM 44.6 °F 39.7 °F 42.8 °F 93% 28.79 in 6.2 mi West 9.2 mph - N/A Rain Rain
4:14 AM 44.6 °F 40.7 °F 42.8 °F 93% 28.79 in 5.6 mi West 6.9 mph - N/A Rain Rain
4:39 AM 42.8 °F 40.1 °F 41.0 °F 93% 28.78 in 6.2 mi West 4.6 mph - N/A Rain Rain
4:47 AM 42.8 °F 41.1 °F 42.8 °F 100% 28.78 in 6.2 mi NW 3.5 mph - N/A Rain Light Rain
4:53 AM 42.8 °F 41.1 °F 41.0 °F 93% 28.78 in 6.2 mi WNW 3.5 mph - N/A Rain Light Rain
4:56 AM 42.8 °F 41.1 °F 41.0 °F 93% 28.78 in 6.2 mi WNW 3.5 mph - N/A Rain Light Rain
4:58 AM 42.8 °F 41.1 °F 41.0 °F 93% 28.79 in 6.2 mi West 3.5 mph - 0.10 in Rain Light Rain
5:03 AM 42.8 °F 40.1 °F 42.8 °F 100% 28.78 in 6.2 mi West 4.6 mph - N/A Rain Light Rain
5:28 AM 42.8 °F - 42.8 °F 100% 28.77 in 6.2 mi NW 1.2 mph - N/A Rain Light Rain
5:58 AM 43.3 °F 40.7 °F 42.1 °F 95% 28.79 in 6.2 mi WSW 4.6 mph - 0.01 in Rain Light Rain
6:06 AM 42.8 °F 38.6 °F 42.8 °F 100% 28.78 in 6.2 mi SW 6.9 mph - N/A Rain Light Rain
6:13 AM 42.8 °F 38.0 °F 42.8 °F 100% 28.79 in 6.2 mi SW 8.1 mph - N/A Rain Light Rain
6:24 AM 42.8 °F 38.6 °F 42.8 °F 100% 28.78 in 6.2 mi SSW 6.9 mph - N/A Rain Light Rain
6:43 AM 42.8 °F 38.0 °F 42.8 °F 100% 28.78 in 6.2 mi SW 8.1 mph - N/A   Overcast
6:46 AM 42.8 °F 37.5 °F 42.8 °F 100% 28.79 in 6.2 mi SW 9.2 mph - N/A   Overcast
6:53 AM 42.8 °F 38.0 °F 42.8 °F 100% 28.79 in 6.2 mi SW 8.1 mph - N/A   Overcast
6:58 AM 43.2 °F 38.4 °F 42.1 °F 96% 28.80 in 6.2 mi SW 8.1 mph - 0.01 in   Mostly Cloudy
7:04 AM 42.8 °F 38.6 °F 41.0 °F 93% 28.79 in 6.2 mi SW 6.9 mph - N/A   Scattered Clouds
7:58 AM 42.1 °F 39.2 °F 40.8 °F 95% 28.80 in 6.2 mi SW 4.6 mph - N/A   Scattered Clouds
8:26 AM 42.8 °F 39.3 °F 41.0 °F 93% 28.80 in 6.2 mi SW 5.8 mph - N/A   Partly Cloudy
8:44 AM 42.8 °F 38.0 °F 41.0 °F 93% 28.81 in 6.2 mi SW 8.1 mph - N/A   Mostly Cloudy
8:54 AM 42.8 °F 38.0 °F 42.8 °F 100% 28.81 in 6.2 mi SW 8.1 mph - N/A   Mostly Cloudy
8:58 AM 43.3 °F 39.2 °F 42.1 °F 95% 28.82 in 6.2 mi SW 6.9 mph - N/A   Mostly Cloudy
9:01 AM 42.8 °F 39.3 °F 42.8 °F 100% 28.81 in 6.2 mi SW 5.8 mph - N/A   Mostly Cloudy
9:03 AM 42.8 °F 39.3 °F 42.8 °F 100% 28.81 in 6.2 mi SW 5.8 mph - N/A   Mostly Cloudy
9:06 AM 44.6 °F 40.7 °F 42.8 °F 93% 28.81 in 6.2 mi SW 6.9 mph - N/A   Mostly Cloudy
9:16 AM 44.6 °F 40.7 °F 42.8 °F 93% 28.82 in 6.2 mi SW 6.9 mph - N/A   Mostly Cloudy
9:17 AM 44.6 °F 40.2 °F 42.8 °F 93% 28.82 in 6.2 mi SW 8.1 mph - N/A   Light Drizzle
9:26 AM 44.6 °F 40.2 °F 42.8 °F 93% 28.82 in 6.2 mi SW 8.1 mph - N/A   Mostly Cloudy
9:28 AM 44.6 °F 39.7 °F 42.8 °F 93% 28.82 in 6.2 mi SW 9.2 mph - N/A   Mostly Cloudy
9:49 AM 44.6 °F 40.2 °F 42.8 °F 93% 28.82 in 6.2 mi SW 8.1 mph - N/A   Overcast
9:56 AM 44.6 °F 39.7 °F 42.8 °F 93% 28.82 in 6.2 mi SW 9.2 mph - N/A   Overcast
9:57 AM 44.6 °F 39.2 °F 42.8 °F 93% 28.82 in 6.2 mi SW 10.4 mph - N/A   Overcast
9:58 AM 44.6 °F 39.2 °F 42.8 °F 93% 28.83 in 6.2 mi SW 10.4 mph - 0.01 in   Overcast
10:01 AM 44.6 °F 40.2 °F 42.8 °F 93% 28.82 in 6.2 mi SW 8.1 mph - N/A   Overcast
10:21 AM 44.6 °F 40.2 °F 42.8 °F 93% 28.82 in 6.2 mi SW 8.1 mph - N/A   Overcast
10:58 AM 45.9 °F 42.3 °F 42.3 °F 87% 28.83 in 6.2 mi SW 6.9 mph - N/A   Overcast
11:15 AM 46.4 °F 40.7 °F 42.8 °F 87% 28.82 in 6.2 mi SW 12.7 mph - N/A   Mostly Cloudy
11:18 AM 46.4 °F 41.1 °F 42.8 °F 87% 28.82 in 6.2 mi SW 11.5 mph - N/A   Overcast
11:24 AM 46.4 °F 41.5 °F 42.8 °F 87% 28.82 in 6.2 mi SW 10.4 mph - N/A Rain Light Rain
11:33 AM 46.4 °F 41.5 °F 42.8 °F 87% 28.81 in 6.2 mi WSW 10.4 mph - N/A Rain Light Rain
11:35 AM 46.4 °F 41.5 °F 42.8 °F 87% 28.81 in 6.2 mi WSW 10.4 mph - N/A   Light Drizzle
11:38 AM 46.4 °F 41.5 °F 42.8 °F 87% 28.81 in 6.2 mi SW 10.4 mph - N/A   Light Drizzle
11:39 AM 46.4 °F 41.9 °F 42.8 °F 87% 28.81 in 6.2 mi SW 9.2 mph - N/A   Light Drizzle
11:40 AM 46.4 °F 41.9 °F 42.8 °F 87% 28.81 in 6.2 mi SW 9.2 mph - N/A   Mostly Cloudy
11:44 AM 46.4 °F 41.9 °F 42.8 °F 87% 28.81 in 6.2 mi WSW 9.2 mph - N/A   Light Drizzle
11:54 AM 48.2 °F - 42.8 °F 82% 28.81 in 6.2 mi SW 8.1 mph - N/A   Mostly Cloudy
11:58 AM 47.5 °F - 43.0 °F 84% 28.82 in 6.2 mi SW 11.5 mph - 0.00 in   Mostly Cloudy
12:58 PM 48.2 °F - 40.1 °F 74% 28.82 in 6.2 mi SW 16.1 mph - N/A   Mostly Cloudy
1:51 PM 46.4 °F 39.5 °F 41.0 °F 81% 28.83 in 6.2 mi West 17.3 mph - N/A Rain Light Rain
1:54 PM 46.4 °F 39.8 °F 41.0 °F 81% 28.84 in 6.2 mi West 16.1 mph - N/A Rain Light Rain
1:58 PM 45.5 °F 38.3 °F 40.6 °F 83% 28.85 in 6.2 mi West 17.3 mph - 0.00 in Rain Light Rain
2:07 PM 44.6 °F 38.4 °F 41.0 °F 87% 28.85 in 6.2 mi West 12.7 mph - N/A Rain Rain
2:12 PM 44.6 °F 39.2 °F 41.0 °F 87% 28.85 in 6.2 mi West 10.4 mph - N/A Rain Light Rain
2:14 PM 44.6 °F 39.2 °F 41.0 °F 87% 28.85 in 6.2 mi West 10.4 mph - N/A Rain Light Rain
2:15 PM 44.6 °F 39.2 °F 41.0 °F 87% 28.85 in 6.2 mi West 10.4 mph - N/A Rain Light Rain
2:17 PM 44.6 °F 39.2 °F 41.0 °F 87% 28.85 in 6.2 mi West 10.4 mph - N/A Rain Light Rain
2:19 PM 44.6 °F 39.2 °F 42.8 °F 93% 28.85 in 6.2 mi West 10.4 mph - N/A   Overcast
2:22 PM 44.6 °F 39.2 °F 42.8 °F 93% 28.85 in 6.2 mi West 10.4 mph - N/A   Overcast
2:24 PM 44.6 °F 38.4 °F 42.8 °F 93% 28.85 in 6.2 mi West 12.7 mph - N/A   Overcast
2:30 PM 44.6 °F 37.4 °F 41.0 °F 87% 28.86 in 6.2 mi West 16.1 mph - N/A Rain Light Rain
2:45 PM 44.6 °F 37.2 °F 41.0 °F 87% 28.87 in 6.2 mi West 17.3 mph - N/A   Overcast
2:47 PM 44.6 °F 37.4 °F 41.0 °F 87% 28.87 in 6.2 mi West 16.1 mph - N/A Rain Light Rain
2:49 PM 44.6 °F 38.4 °F 41.0 °F 87% 28.87 in 6.2 mi West 12.7 mph - N/A Rain Light Rain
2:52 PM 42.8 °F 35.8 °F 41.0 °F 93% 28.87 in 6.2 mi West 13.8 mph - N/A Rain Light Rain
2:53 PM 42.8 °F 35.8 °F 41.0 °F 93% 28.87 in 6.2 mi West 13.8 mph - N/A Rain Light Rain
2:54 PM 42.8 °F 36.2 °F 41.0 °F 93% 28.87 in 6.2 mi West 12.7 mph - N/A Rain Light Rain
2:58 PM 43.5 °F 36.7 °F 40.3 °F 88% 28.89 in 6.2 mi West 13.8 mph - 0.01 in Rain Light Rain
3:01 PM 42.8 °F 35.4 °F 39.2 °F 87% 28.88 in 6.2 mi West 15.0 mph - N/A Rain Light Rain
3:08 PM 42.8 °F 35.8 °F 39.2 °F 87% 28.88 in 6.2 mi West 13.8 mph - N/A   Light Drizzle
3:29 PM 42.8 °F 36.6 °F 39.2 °F 87% 28.89 in 6.2 mi West 11.5 mph - N/A   Overcast
3:35 PM 42.8 °F 36.6 °F 39.2 °F 87% 28.89 in 6.2 mi West 11.5 mph - N/A   Overcast
3:58 PM 43.2 °F 37.9 °F 39.7 °F 88% 28.92 in 6.2 mi West 9.2 mph - 0.00 in   Overcast
4:58 PM 41.7 °F 36.7 °F 39.0 °F 90% 28.94 in 6.2 mi SW 8.1 mph - N/A   Partly Cloudy
5:58 PM 41.5 °F 35.0 °F 39.0 °F 91% 28.98 in 6.2 mi SW 11.5 mph - N/A   Clear
6:58 PM 40.5 °F 35.1 °F 37.6 °F 89% 29.00 in 6.2 mi SW 8.1 mph - N/A   Partly Cloudy
7:58 PM 40.5 °F 34.1 °F 37.2 °F 88% 29.01 in 6.2 mi SW 10.4 mph - N/A   Partly Cloudy
8:58 PM 40.8 °F 33.7 °F 37.2 °F 87% 29.04 in 6.2 mi SW 12.7 mph - N/A   Mostly Cloudy
9:58 PM 40.3 °F 32.2 °F 35.4 °F 83% 29.05 in 6.2 mi SW 15.0 mph - N/A   Clear
10:58 PM 38.5 °F 30.7 °F 34.2 °F 84% 29.07 in 6.2 mi SSW 12.7 mph - N/A   Clear
11:58 PM 38.7 °F 30.5 °F 34.0 °F 83% 29.07 in 6.2 mi SSW 13.8 mph - N/A   Clear